Location: Stony Creek
(40.9500°S, 175.8500°E)
Time: 10:14:36
(UTC+00:00)

Cosmos 1140 Rocket - Pass Details

Date: 15 May 2026
Orbit: 740 x 761 km, 74.1° (Epoch: 10 June)

Event Time Altitude Azimuth Distance (km) Brightness Sun altitude
Exits shadow 17:37:39 14° 203° (SSW) 2,050 5.4 -18.8°
Maximum altitude 17:42:12 76° 287° (WNW) 798 3.4 -18.0°
Drops below altitude 10° 17:47:24 10° 11° (NNE) 2,293 6.2 -17.0°
Sets 17:49:45 0° 13° (NNE) 3,208 7.0 -16.6°
